Weather in Kirov

Belarus     51°30′14″N   29°25′37″E
temp.,
°C
wind,
m/s
gust,
m/s
humid.,
%
clouds,
%
prec.,
mm/h
press.,
hPa
HPBL,
m
19 may, wed
wed1900:00+12ne119412 0.0 99911
03:00+11ne119663 0.0 100011
06:00+11ne0097100 0.8 100018
09:00+14nw2290100 1.4 1001433
12:00+13wnw3595100 0.9 1002401
15:00+12nw4896100 2.1 1003479
18:00+10nw51196100 4.1 1005659
21:00+10nw51095100 4.9 1006625
20 may, thu
thu2000:00+9wnw4109599 0.0 1006600
03:00+9wnw51193100 0.0 1006670
06:00+9wnw51388100 0.0 1006765
09:00+13nw61267100 0.0 1007982
12:00+17nw610475 0.0 10081627
15:00+19nw574298 0.0 10082322
18:00+15wnw4861100 0.0 1010766
21:00+12nw3676100 0.0 1012162
21 may, fri
fri2100:00+10wnw2686100 0.0 1013111
03:00+9nw2889100 0.0 1014196
06:00+9nnw2690100 0.0 1015153
09:00+14nnw346485 0.0 1016642
12:00+17nnw334398 0.0 10161593
15:00+18n3337100 0.0 10161855
18:00+17ene334687 0.0 10171170
21:00+12ese116919 0.0 101811
22 may, sat
sat2200:00+10se34715 0.0 101858
03:00+9sse22781 0.0 101820
06:00+8s11810 0.0 101811
09:00+16sse235412 0.0 1018516
12:00+20se33430 0.0 10161557
15:00+21sse34425 0.0 10152083
18:00+21sse454950 0.0 10142062
21:00+15se3782100 0.0 1013156
23 may, sun
sun2300:00+12sse2690100 0.0 1013103
03:00+11sse3696100 0.0 1011118
06:00+12s3890100 0.0 1011212
09:00+16ssw3672100 0.0 1009278
12:00+14sw51191100 1.1 1007828
15:00+12w51178100 1.4 10091102
18:00+15w5107472 0.8 10091265
21:00+11w512840 0.9 1011788